Location: Caltech
(34.1382°N, 118.1253°W)
Time: 16:08:16
(UTC-07:00)

Meteor 2-4 Rocket - Visible Passes

Search period start: 02 July 2015 00:00
Search period end: 12 July 2015 00:00
Orbit: 798 x 910 km, 81.2° (Epoch: 02 July)

Date Brightness Start Highest point End Pass type
(mag) Time Alt. Az. Time Alt. Az. Time Alt. Az.
02 Jul 5.6 02:12:13 10° NNE 02:16:21 23° ENE 02:18:42 18° ESE visible
02 Jul 4.3 03:54:37 10° NNW 03:59:28 34° W 04:00:45 30° WSW visible
03 Jul 5.6 02:01:22 10° NNE 02:05:20 21° ENE 02:07:18 18° E visible
03 Jul 4.2 03:43:34 10° NNW 03:48:30 37° W 03:49:21 35° WSW visible
04 Jul 5.6 01:50:31 10° NNE 01:54:20 20° ENE 01:55:57 18° E visible
04 Jul 4.1 03:32:31 10° NNW 03:37:32 40° W 03:38:00 39° WSW visible
05 Jul 5.7 01:39:41 10° NNE 01:43:19 19° ENE 01:44:38 18° E visible
05 Jul 4.0 03:21:29 10° NNW 03:26:34 43° W 03:26:41 43° W visible
06 Jul 5.7 01:28:52 10° NNE 01:32:17 17° ENE 01:33:21 17° E visible
06 Jul 4.0 03:10:27 10° NNW 03:15:24 46° W 03:15:24 46° W visible
07 Jul 5.8 01:18:04 10° NNE 01:21:16 16° ENE 01:22:06 16° E visible
07 Jul 4.0 02:59:25 10° NNW 03:04:10 49° WNW 03:04:10 49° WNW visible
08 Jul 5.9 01:07:17 10° NE 01:10:15 15° ENE 01:10:54 15° ENE visible
08 Jul 4.0 02:48:24 10° NNW 02:52:57 50° WNW 02:52:57 50° WNW visible
09 Jul 5.9 00:56:32 10° NE 00:59:14 14° ENE 00:59:43 14° ENE visible
09 Jul 4.1 02:37:23 10° NNW 02:41:46 51° NW 02:41:46 51° NW visible
10 Jul 6.0 00:45:50 10° NE 00:48:12 13° ENE 00:48:33 13° ENE visible
10 Jul 4.2 02:26:22 10° NNW 02:30:36 51° NW 02:30:36 51° NW visible
11 Jul 6.0 00:35:11 10° NE 00:37:10 12° ENE 00:37:24 12° ENE visible
11 Jul 4.2 02:15:22 10° NNW 02:19:28 50° NW 02:19:28 50° NW visible
